Hourly Data Report for September 24, 2017

All times are specified in Local Standard Time (LST). Add 1 hour to adjust for Daylight Saving Time where and when it is observed.

SAINT JOHN A
NEW BRUNSWICK

45°18'58.000" N
65°53'24.000" W
108.80 m
8104901
71609
YSJ

Download Data

Hourly Data (September 2017)
Hourly Data Report for September 24, 2017
Temp Definition
°C
Dew Point Temp Definition
°C
Rel Hum Definition
%
Wind Dir Definition
10's deg

Wind Spd Definition
km/h
Visibility Definition
km
Stn Press Definition
kPa
Hmdx Definition


Wind Chill Definition


Weather Definition


TIME
00:00 Legend Double Dagger 12.4 11.7 95 36 3 24.1 100.28     LegendNANA
01:00 Legend Double Dagger 14.7 13.8 94 7 6 24.1 100.35     LegendNANA
02:00 Legend Double Dagger 13.3 12.6 95 36 2 24.1 100.33     Mainly Clear
03:00 Legend Double Dagger 13.6 12.4 92 35 4 24.1 100.35     LegendNANA
04:00 Legend Double Dagger 11.8 11.3 97 33 6 24.1 100.38     LegendNANA
05:00 Legend Double Dagger 10.6 10.0 96 36 2 24.1 100.41     Mainly Clear
06:00 Legend Double Dagger 11.8 10.9 94 36 1 24.1 100.43     LegendNANA
07:00 Legend Double Dagger 15.0 12.5 85 9 3 24.1 100.46     LegendNANA
08:00 Legend Double Dagger 17.1 13.4 78 14 9 24.1 100.47     Mostly Cloudy
09:00 Legend Double Dagger 18.5 14.8 79 16 14 24.1 100.45     LegendNANA
10:00 Legend Double Dagger 21.8 16.6 72 21 19 24.1 100.42 27   LegendNANA
11:00 Legend Double Dagger 23.0 16.8 68 19 16 24.1 100.38 28   Mostly Cloudy
12:00 Legend Double Dagger 24.2 15.9 60 20 22 24.1 100.30 29   LegendNANA
13:00 Legend Double Dagger 24.7 15.2 55 21 19 24.1 100.25 29   LegendNANA
14:00 Legend Double Dagger 25.8 15.7 53 21 20 24.1 100.25 30   Mostly Cloudy
15:00 Legend Double Dagger 23.5 14.7 57 19 22 24.1 100.19 27   LegendNANA
16:00 Legend Double Dagger 22.5 14.9 62 20 16 24.1 100.20 26   LegendNANA
17:00 Legend Double Dagger 21.3 14.2 63 21 14 24.1 100.20 25   Mostly Cloudy
18:00 Legend Double Dagger 18.8 13.4 71 21 11 24.1 100.24     LegendNANA
19:00 Legend Double Dagger 16.6 13.5 82 19 4 24.1 100.30     LegendNANA
20:00 Legend Double Dagger 15.4 13.4 88 36 1 24.1 100.34     Mostly Cloudy
21:00 Legend Double Dagger 15.5 13.4 87 20 8 24.1 100.33     LegendNANA
22:00 Legend Double Dagger 15.0 13.3 90 20 5 24.1 100.33     LegendNANA
23:00 Legend Double Dagger 15.2 13.5 89 14 5 24.1 100.36     Mostly Cloudy

Notes on Data Quality.

Legend

  • E = Estimated
  • M = Missing
  • NA = Not Available
  • ‡ = Partner data that is not subject to review by the National Climate Archives
Date modified: